LEMUR-2-AUSTINTACIOUS (42068 NORAD) Tracking and Keplerian Element Data

This shows tracking and keplerian element data for the satellite.

Feedback or suggestion? Click here.




ElementValue
Catalog42068
NameLEMUR-2-AUSTINTACIOUS
Epoch Orbit7870
Epoch Day202.77002273
Epoch Year2018
RAAN157.708
Inclination51.6296
Eccentricity0.0004497
Argument of Perigee32.8413
Mean Anonmoly327.287
Mean Motion15.86832321
Decay Rate0.00101317
L11 42068U 98067LD 18202.77002273 .00101317 00000-0 38418-3 0 9991
L22 42068 51.6296 157.7080 0004497 32.8413 327.2870 15.86832321 78704

Live tracking and technical data element details for LEMUR-2-AUSTINTACIOUS (NORAD 42068). LEMUR-2-AUSTINTACIOUS can be tracked NOW for your location showing map with azimuth and elevation plus other details from your city location.

Track the satellite on the map from your city or location and see movement details for azimuth, elevation, latitude, longitude, range, height, and movement on the map or in text.







IsCatalogInMostPopularTable: catalog: 42068, numindb: 100
Update: records affected: 1



GetName: 42068 LEMUR-2-AUSTINTACIOUS

Hit Count: updated at: Mon, 23 Jul 2018 08:03:29 GMT